Flag for Iran Weather past 2 weeks in Esfahãn, Iran

Now
64 °F

Sunny.


Feels Like: 64 °F
Forecast: 38 / 73 °F
Wind: 14 mph from Northwest

Location: Esfahan

Current Time: Oct 22, 2014 at 12:50:26 PM

Latest Report: Oct 22, 2014 at 12:00 PM


Visibility: 10 mi

Pressure: 30.12 "Hg

Humidity: 24%

Dew point: 27 °F

Location of EsfahãnLocation

Historic Weather in Esfahãn — Graph

°F

Esfahãn temperature yesterday

Maximum temperature yesterday: 75 °F (at 3:30 PM)
Minimum temperature yesterday: 50 °F (at 11:30 PM)
Average temperature yesterday: 63 °F

Past Weeks' High & Low Weather Summary

 TemperatureHumidityPressure
High82 °F (Oct 7, 2:00 PM)81% (Oct 18, 6:00 AM)30.30 "Hg (Oct 18, 6:00 AM)
Low37 °F (Oct 10, 5:30 AM)8% (Oct 10, 3:00 PM)29.92 "Hg (Oct 18, 2:00 PM)
Average61 °F34%30.14 "Hg
* Reported Oct 7 11:30 AM — Oct 22 11:30 AM, Esfahãn, Weather by CustomWeather, © 2014

Note: Actual official high and low records may vary slightly from our data, if they occured in-between our weather recording intervals... More about our weather records

Advertising

Esfahãn weather history for previous 24 hours

 ConditionsComfort  
Time TempWeatherWind HumidityBarometerVisibility
11:30 AM
Oct 22
63 °FSunny.12 mph25%30.15 "Hg10 mi
11:00 AM63 °FSunny.16 mph25%30.15 "Hg10 mi
10:30 AM61 °FSunny.14 mph31%30.15 "Hg10 mi
10:00 AM57 °FSunny.16 mph33%30.18 "Hg10 mi
9:30 AM55 °FSunny.16 mph41%30.15 "Hg10 mi
9:00 AM55 °FSunny.22 mph44%30.15 "Hg10 mi
8:30 AM54 °FSunny.16 mph47%30.15 "Hg10 mi
8:00 AM50 °FSunny.12 mph54%30.15 "Hg10 mi
7:30 AM48 °FSunny.9 mph58%30.12 "Hg10 mi
7:00 AM48 °FSunny.12 mph58%30.12 "Hg10 mi
6:30 AM45 °FClear.12 mph66%30.09 "Hg5 mi
6:00 AM45 °FClear.12 mph66%30.07 "Hg4 mi
5:30 AM45 °FClear.9 mph66%30.07 "Hg4 mi
5:00 AM46 °FClear.7 mph62%30.07 "Hg5 mi
4:00 AM48 °FClear.12 mph54%30.04 "Hg10 mi
3:30 AM54 °FClear.16 mph35%30.04 "Hg10 mi
3:00 AM52 °FClear.12 mph35%30.04 "Hg10 mi
2:30 AM54 °FClear.14 mph33%30.01 "Hg10 mi
2:00 AM50 °FClear.12 mph35%30.01 "Hg10 mi
1:30 AM52 °FClear.7 mph32%30.01 "Hg10 mi
1:00 AM52 °FClear.9 mph32%30.01 "Hg10 mi
12:30 AM54 °FClear.9 mph33%30.01 "Hg10 mi
12:00 AM52 °FClear.12 mph38%30.01 "Hg10 mi
11:30 PM
Oct 21
50 °FClear.14 mph40%30.01 "Hg10 mi
11:00 PM55 °FClear.16 mph33%29.98 "Hg5 mi
10:30 PM54 °FClear.14 mph38%30.01 "Hg5 mi
10:00 PM54 °FPassing clouds.14 mph38%30.01 "Hg4 mi
9:30 PM59 °FPassing clouds.7 mph34%30.01 "Hg4 mi
9:00 PM61 °FPassing clouds.7 mph34%30.01 "Hg4 mi
8:30 PM61 °FPassing clouds.5 mph34%30.01 "Hg4 mi
8:00 PM61 °FPassing clouds.12 mph34%29.98 "Hg4 mi
7:30 PM61 °FPassing clouds.7 mph36%29.98 "Hg4 mi
7:00 PM64 °FPassing clouds.12 mph28%29.95 "Hg4 mi
6:30 PM66 °FPassing clouds.7 mph35%29.95 "Hg4 mi
6:00 PM68 °FPassing clouds.7 mph24%29.95 "Hg4 mi
5:30 PM70 °FHaze.5 mph27%29.95 "Hg3 mi
5:00 PM70 °FScattered clouds.7 mph27%29.92 "Hg4 mi
4:30 PM72 °FScattered clouds.22 mph25%29.92 "Hg4 mi
4:00 PM73 °FScattered clouds.22 mph23%29.92 "Hg3 mi
3:30 PM75 °FScattered clouds.16 mph24%29.95 "Hg3 mi
3:00 PM73 °FScattered clouds.18 mph25%29.95 "Hg3 mi
2:30 PM73 °FSandstorm.22 mph25%29.95 "Hg2 mi
2:00 PM73 °FSandstorm.22 mph25%29.98 "Hg1 mi
1:30 PM73 °FScattered clouds.16 mph25%29.98 "Hg3 mi
1:00 PM72 °FScattered clouds.9 mph31%29.98 "Hg4 mi
12:30 PM72 °FScattered clouds.22 mph29%30.01 "Hg3 mi
12:00 PM72 °FScattered clouds.22 mph29%30.04 "Hg3 mi
Weather by CustomWeather, © 2014

See weather overviewHow to use our weather pages